Location: Fazenda Monte Alegre
(4.8500°S, 38.0333°W)
Time: 17:27:07
(UTC+00:00)

Cosmos 1634 Rocket - Pass Details

Date: 24 September 2020
Orbit: 961 x 991 km, 82.9° (Epoch: 25 October)

Event Time Altitude Azimuth Distance (km) Brightness Sun altitude
Rises 21:44:20 0° 178° (S) 3,654 7.0 -20.0°
Reaches altitude 10° 21:46:52 10° 175° (S) 2,702 6.3 -20.6°
Maximum altitude 21:52:59 66° 93° (E) 1,041 3.8 -22.1°
Drops below altitude 10° 21:59:04 10° 12° (NNE) 2,684 6.1 -23.6°
Sets 22:01:34 0° 9° (N) 3,627 6.9 -24.2°
